| time (UTC) | temp C | wind direction | speed KPH | gust KPH | rain 1hr cm | rain 24hr cm | rain mn cm | humidity % | barometer mb |
| 20260902113103 | 22 | 0 | 3.2 | 0.0 | 0.00 | 0.00 | 0.00 | 49 | 1021.0 |
| 20260902112052 | 22 | 240 | 11.3 | 0.0 | 0.00 | 0.00 | 0.00 | 53 | |
| 20260902110210 | 22 | 210 | 8.0 | 0.0 | 0.00 | 0.00 | 0.00 | 53 | 1021.0 |
| 20260902103102 | 22 | 260 | 9.7 | 0.0 | 0.00 | 0.00 | 0.00 | 53 | 1021.0 |
| 20260902102153 | 21 | 230 | 8.0 | 0.0 | 0.00 | 0.00 | 0.00 | 56 | |
| 20260902093103 | 21 | 310 | 4.8 | 0.0 | 0.00 | 0.00 | 0.00 | 60 | 1021.0 |
| 20260902091851 | 20 | 310 | 3.2 | 0.0 | 0.00 | 0.00 | 0.00 | 60 | |
| 20260902090104 | 21 | 0 | 3.2 | 0.0 | 0.00 | 0.00 | 0.00 | 60 | 1021.0 |
| 20260902083102 | 18 | 180 | 4.8 | 0.0 | 0.00 | 0.00 | 0.00 | 68 | 1021.0 |
| 20260902082051 | 17 | 200 | 3.2 | 0.0 | 0.00 | 0.00 | 0.00 | 67 | |
| 20260902080104 | 18 | 0 | 1.6 | 0.0 | 0.00 | 0.00 | 0.00 | 68 | 1021.0 |
| 20260902073102 | 17 | 0 | 3.2 | 0.0 | 0.00 | 0.00 | 0.00 | 67 | 1022.0 |
| 20260902071951 | 17 | 210 | 8.0 | 0.0 | 0.00 | 0.00 | 0.00 | 72 | |
| 20260902070211 | 17 | 210 | 4.8 | 0.0 | 0.00 | 0.00 | 0.00 | 72 | 1021.0 |
| 20260902063103 | 15 | 210 | 4.8 | 0.0 | 0.00 | 0.00 | 0.00 | 82 | 1021.0 |
| 20260902061852 | 15 | 210 | 8.0 | 0.0 | 0.00 | 0.00 | 0.00 | 77 | |
| 20260902060104 | 15 | 220 | 9.7 | 0.0 | 0.00 | 0.00 | 0.00 | 77 | 1021.0 |
| 20260902053104 | 13 | 220 | 8.0 | 0.0 | 0.00 | 0.00 | 0.00 | 87 | 1021.0 |
| 20260902052038 | 12 | 200 | 8.0 | 0.0 | 0.00 | 0.00 | 0.00 | 82 | |
| 20260902050104 | 12 | 210 | 4.8 | 0.0 | 0.00 | 0.00 | 0.00 | 87 | 1021.0 |
| 20260902043103 | 12 | 180 | 8.0 | 0.0 | 0.00 | 0.00 | 0.00 | 87 | 1021.0 |
| 20260902042154 | 12 | 180 | 8.0 | 0.0 | 0.00 | 0.00 | 0.00 | 87 | |
| 20260902040209 | 12 | 180 | 8.0 | 0.0 | 0.00 | 0.00 | 0.00 | 87 | 1021.0 |
| 20260902033103 | 12 | 190 | 8.0 | 0.0 | 0.00 | 0.00 | 0.00 | 87 | 1021.0 |
| 20260902031851 | 12 | 180 | 8.0 | 0.0 | 0.00 | 0.00 | 0.00 | 87 | |
| 20260902030211 | 12 | 190 | 9.7 | 0.0 | 0.00 | 0.00 | 0.00 | 87 | 1021.0 |
| 20260902023103 | 12 | 210 | 4.8 | 0.0 | 0.00 | 0.00 | 0.00 | 82 | 1021.0 |
| 20260902022051 | 13 | 230 | 8.0 | 0.0 | 0.00 | 0.00 | 0.00 | 76 | |
| 20260902013103 | 12 | 210 | 9.7 | 0.0 | 0.00 | 0.00 | 0.00 | 87 | 1021.0 |
| 20260902012051 | 12 | 200 | 11.3 | 0.0 | 0.00 | 0.00 | 0.00 | 82 | |
| 20260902003102 | 12 | 200 | 4.8 | 0.0 | 0.00 | 0.00 | 0.00 | 82 | 1021.0 |
| 20260902001852 | 13 | 190 | 11.3 | 0.0 | 0.00 | 0.00 | 0.00 | 76 | |
| 20260902000211 | 13 | 190 | 9.7 | 0.0 | 0.00 | 0.00 | 0.00 | 82 | 1021.0 |
| 20260901233102 | 13 | 190 | 8.0 | 0.0 | 0.00 | 0.00 | 0.00 | 82 | 1021.0 |
| 20260901232038 | 15 | 180 | 11.3 | 0.0 | 0.00 | 0.00 | 0.00 | 77 | |
| 20260901223102 | 15 | 190 | 9.7 | 0.0 | 0.00 | 0.00 | 0.00 | 77 | 1021.0 |
| 20260901222154 | 13 | 190 | 8.0 | 0.0 | 0.00 | 0.00 | 0.00 | 82 | |
| 20260901220104 | 16 | 190 | 8.0 | 0.0 | 0.00 | 0.00 | 0.00 | 72 | 1021.0 |
| 20260901213102 | 16 | 190 | 4.8 | 0.0 | 0.00 | 0.00 | 0.00 | 72 | 1020.0 |
| 20260901211852 | 15 | 190 | 8.0 | 0.0 | 0.00 | 0.00 | 0.00 | 72 | |
| 20260901210211 | 16 | 190 | 3.2 | 0.0 | 0.00 | 0.00 | 0.00 | 72 | 1020.0 |
| 20260901203103 | 16 | 190 | 4.8 | 0.0 | 0.00 | 0.00 | 0.00 | 67 | 1020.0 |
| 20260901202050 | 17 | 200 | 3.2 | 0.0 | 0.00 | 0.00 | 0.00 | 59 | |
| 20260901193102 | 17 | 290 | 1.6 | 0.0 | 0.00 | 0.00 | 0.00 | 63 | 1020.0 |
| 20260901192052 | 18 | 290 | 3.2 | 0.0 | 0.00 | 0.00 | 0.00 | 55 | |
| 20260901183102 | 18 | 0 | 3.2 | 0.0 | 0.00 | 0.00 | 0.00 | 59 | 1020.0 |
| 20260901181851 | 20 | 220 | 3.2 | 0.0 | 0.00 | 0.00 | 0.00 | 52 | |
| 20260901180103 | 20 | 190 | 4.8 | 0.0 | 0.00 | 0.00 | 0.00 | 52 | 1020.0 |
| 20260901173102 | 21 | 280 | 8.0 | 0.0 | 0.00 | 0.00 | 0.00 | 46 | 1019.0 |
| 20260901172052 | 22 | 270 | 8.0 | 0.0 | 0.00 | 0.00 | 0.00 | 43 | |
| 20260901170212 | 21 | 270 | 8.0 | 0.0 | 0.00 | 0.00 | 0.00 | 49 | 1019.0 |
| 20260901163103 | 22 | 240 | 11.3 | 0.0 | 0.00 | 0.00 | 0.00 | 46 | 1019.0 |
| 20260901162154 | 22 | 240 | 8.0 | 0.0 | 0.00 | 0.00 | 0.00 | 43 | |
| 20260901153103 | 22 | 290 | 8.0 | 0.0 | 0.00 | 0.00 | 0.00 | 43 | 1020.0 |
| 20260901151851 | 22 | 280 | 8.0 | 0.0 | 0.00 | 0.00 | 0.00 | 43 | |
| 20260901150103 | 22 | 280 | 9.7 | 0.0 | 0.00 | 0.00 | 0.00 | 46 | 1020.0 |
| 20260901143102 | 22 | 300 | 14.5 | 0.0 | 0.00 | 0.00 | 0.00 | 46 | 1020.0 |
| 20260901142051 | 22 | 300 | 11.3 | 0.0 | 0.00 | 0.00 | 0.00 | 43 | |
| 20260901133103 | 22 | 270 | 14.5 | 0.0 | 0.00 | 0.00 | 0.00 | 46 | 1020.0 |
| 20260901131952 | 22 | 260 | 14.5 | 0.0 | 0.00 | 0.00 | 0.00 | 46 | |
| 20260901123209 | 21 | 270 | 9.7 | 0.0 | 0.00 | 0.00 | 0.00 | 52 | 1020.0 |
| 20260901121851 | 21 | 290 | 14.5 | 0.0 | 0.00 | 0.00 | 0.00 | 49 | |
| 20260901120103 | 21 | 290 | 12.9 | 0.0 | 0.00 | 0.00 | 0.00 | 52 | 1021.0 |